SCP
0 0 0 0 0 0 0 0 0 0 0 0 0 0 0 0 0 0 0 0 0 0
0 0 0 0 0 0 0 0 0 0 0 0 0 0 0 0 0 0 0 0 0 0
0 0 0 0 0 0 0 0 0 0 0 0 0 0 0 0 0 0 0 0 0 0
0 0 0 0 0 0 0 0 0 0 0 0 0 0 0 0 0 0 0 0 0 0
0 0 0 0 0 0 0 0 0 0 0 0 0 0 0 0 0 0 0 0 0 0
0 0 0 0 0 0 0 0 0 0 0 0 0 0 0 0 0 0 0 0 0 0
0 0 0 0 0 0 0 0 0 0 0 0 0 0 0 0 0 0 0 0 0 0
-0 -0 -0 0 0 0 0 0 0 0 0 0 0 0 0 0 0 0 0 0 0 0
-0 -0 -0 -0 0 0 0 0 0 0 0 0 0 0 0 0 0 0 0 0 0 0
-0 -0 0 0 0 0 0 0 0 0 0 0 0 0 0 0 0 0 0 0 0 0
-0 -0 -0 -0 0 0 0 0 0 0 0 0 0 0 0 0 0 0 0 0 0 0
0 0 0 0 -0 -0 -0 0 0 0 0 0 0 0 0 0 0 0 0 0 0 0
0 0 0 0 0 0 0 0 0 0 0 0 0 0 0 0 0 0 0 0 0 0
0 0 0 0 0 0 0 0 0 0 0 0 0 0 0 0 0 0 0 0 0 0
Wind_Speed_500mb
17 23 30 38 45 52 57 58 58 58 61 65 69 70 78 86 87 87 90 94 99 105
18 17 19 24 33 39 43 47 50 53 57 60 64 69 72 81 88 90 94 96 96 98
12 17 22 27 31 31 32 36 40 45 50 55 59 64 69 75 83 86 91 93 94 97
24 26 30 35 38 42 42 41 43 46 49 53 58 61 67 73 78 85 90 93 95 97
39 42 44 48 51 53 54 54 57 59 63 64 63 63 66 71 75 80 85 89 92 92
37 41 46 52 57 59 62 64 66 69 71 72 70 70 70 71 74 78 81 82 86 82
49 47 45 46 50 54 60 67 70 71 71 70 70 72 72 74 77 79 80 80 78 78
57 56 57 56 55 56 55 55 57 62 66 70 70 70 69 71 74 76 78 77 75 76
65 66 65 63 61 62 63 64 64 63 65 63 64 67 72 74 75 73 73 74 72 72
64 67 68 70 70 67 65 66 68 69 72 72 67 63 65 68 70 73 72 69 69 72
70 74 77 78 77 76 73 72 72 71 68 70 70 67 63 62 62 65 65 64 65 67
67 74 77 78 82 84 86 85 80 74 74 72 67 62 62 54 56 61 64 61 62 63
66 70 75 78 80 81 82 86 83 80 73 68 66 57 52 47 52 60 56 54 57 56
67 71 73 78 80 81 79 78 77 76 69 61 59 54 43 40 47 52 49 50 47 43
Wind_Direction_500mb
324 303 291 285 283 281 281 281 281 277 273 272 272 271 268 269 268 270 271 272 271 271
23 1 335 310 295 293 290 288 283 278 274 271 269 268 267 268 269 270 271 271 272 273
343 333 328 324 319 310 306 301 296 289 282 276 271 269 267 266 268 268 268 270 271 272
317 310 308 307 305 302 304 303 301 299 294 288 281 275 271 269 268 268 269 270 272 274
322 316 312 308 305 300 297 294 295 296 296 295 292 285 277 274 272 271 271 272 272 273
323 316 311 306 302 302 300 299 297 295 294 293 292 290 286 282 278 275 274 273 272 273
341 338 331 323 316 307 301 300 299 298 296 294 292 289 287 284 282 281 279 277 275 274
338 339 336 331 328 324 320 316 311 305 299 297 295 294 292 287 283 279 278 278 276 275
331 329 328 329 327 323 322 321 318 314 309 304 298 293 290 288 286 282 279 277 276 275
328 328 329 326 322 320 320 316 313 314 313 308 303 298 292 286 281 279 279 278 278 280
326 325 324 321 321 321 319 315 313 311 309 308 307 301 294 286 282 280 278 279 281 281
325 323 322 321 319 318 316 316 316 312 307 304 302 300 297 291 286 282 282 283 283 282
318 317 316 316 315 314 314 313 312 312 312 307 304 302 300 296 288 286 289 288 283 281
314 315 315 315 314 312 313 312 311 309 309 308 306 306 306 302 293 292 293 289 286 284
Wind_Speed_850mb
17 23 30 38 45 52 57 58 58 58 61 65 69 70 78 86 87 87 90 94 99 105
18 17 19 24 33 39 43 47 50 53 57 60 64 69 72 81 88 90 94 96 96 98
12 17 22 27 31 31 32 36 40 45 50 55 59 64 69 75 83 86 91 93 94 97
24 26 30 35 38 42 42 41 43 46 49 53 58 61 67 73 78 85 90 93 95 97
39 42 44 48 51 53 54 54 57 59 63 64 63 63 66 71 75 80 85 89 92 92
37 41 46 52 57 59 62 64 66 69 71 72 70 70 70 71 74 78 81 82 86 82
49 47 45 46 50 54 60 67 70 71 71 70 70 72 72 74 77 79 80 80 78 78
57 56 57 56 55 56 55 55 57 62 66 70 70 70 69 71 74 76 78 77 75 76
65 66 65 63 61 62 63 64 64 63 65 63 64 67 72 74 75 73 73 74 72 72
64 67 68 70 70 67 65 66 68 69 72 72 67 63 65 68 70 73 72 69 69 72
70 74 77 78 77 76 73 72 72 71 68 70 70 67 63 62 62 65 65 64 65 67
67 74 77 78 82 84 86 85 80 74 74 72 67 62 62 54 56 61 64 61 62 63
66 70 75 78 80 81 82 86 83 80 73 68 66 57 52 47 52 60 56 54 57 56
67 71 73 78 80 81 79 78 77 76 69 61 59 54 43 40 47 52 49 50 47 43
Wind_Direction_850mb
324 303 291 285 283 281 281 281 281 277 273 272 272 271 268 269 268 270 271 272 271 271
23 1 335 310 295 293 290 288 283 278 274 271 269 268 267 268 269 270 271 271 272 273
343 333 328 324 319 310 306 301 296 289 282 276 271 269 267 266 268 268 268 270 271 272
317 310 308 307 305 302 304 303 301 299 294 288 281 275 271 269 268 268 269 270 272 274
322 316 312 308 305 300 297 294 295 296 296 295 292 285 277 274 272 271 271 272 272 273
323 316 311 306 302 302 300 299 297 295 294 293 292 290 286 282 278 275 274 273 272 273
341 338 331 323 316 307 301 300 299 298 296 294 292 289 287 284 282 281 279 277 275 274
338 339 336 331 328 324 320 316 311 305 299 297 295 294 292 287 283 279 278 278 276 275
331 329 328 329 327 323 322 321 318 314 309 304 298 293 290 288 286 282 279 277 276 275
328 328 329 326 322 320 320 316 313 314 313 308 303 298 292 286 281 279 279 278 278 280
326 325 324 321 321 321 319 315 313 311 309 308 307 301 294 286 282 280 278 279 281 281
325 323 322 321 319 318 316 316 316 312 307 304 302 300 297 291 286 282 282 283 283 282
318 317 316 316 315 314 314 313 312 312 312 307 304 302 300 296 288 286 289 288 283 281
314 315 315 315 314 312 313 312 311 309 309 308 306 306 306 302 293 292 293 289 286 284